Regional Weather Roundup
Issued by NWS

Home | Current Version | Previous Version | Graphics & Text | Print | Product List | Glossary On
Versions: 1 2 3 4 5 6 7 8 9 10 11 12 13 14 15 16 17 18 19 20 21 22 23 24 25 26 27 28 29 30 31 32 33 34 35 36 37 38 39 40 41 42 43 44 45 46 47 48 49 50
000
ASUS43 KBIS 020002
RWRND

NORTH DAKOTA REGIONAL WEATHER ROUNDUP
NATIONAL WEATHER SERVICE BISMARCK ND
700 PM CDT SUN MAY 01 2016

NOTE: "FAIR" INDICATES FEW OR NO CLOUDS BELOW 12,000 FEET WITH NO
SIGNIFICANT WEATHER AND/OR OBSTRUCTIONS TO VISIBILITY.


NDZ001>003-009>011-017-020100-
NORTHWEST NORTH DAKOTA

CITY           SKY/WX    TMP DP  RH WIND       PRES   REMARKS
WILLISTON      SUNNY     68  25  19 CALM      30.17F
6HR MIN TEMP:  62; 6HR MAX TEMP:  69;

MINOT          SUNNY     69  22  16 CALM      30.14F
$$

NDZ018>021-031>035-040>046-020100-
SOUTHWEST NORTH DAKOTA

CITY           SKY/WX    TMP DP  RH WIND       PRES   REMARKS
BISMARCK       SUNNY     64  29  26 VRB7      30.19F
6HR MIN TEMP:  59; 6HR MAX TEMP:  65;

DICKINSON      MOSUNNY   59  29  31 NW6       30.17F
GARRISON         N/A     63  22  20 S8        30.16F
6HR MIN TEMP:  59; 6HR MAX TEMP:  64;

HETTINGER ARPT SUNNY     62  25  24 N9        30.20F
$$

NDZ004>008-012>016-024-026-027-054-020100-
NORTHEAST NORTH DAKOTA

CITY           SKY/WX    TMP DP  RH WIND       PRES   REMARKS
GRAND FORKS    SUNNY     66  27  23 NW6       30.14F
GRND FRKS AFB  SUNNY     64  25  22 E5        30.14F
DEVILS LAKE    SUNNY     63  24  22 NW6       30.15F
$$

NDZ022-023-025-028>030-036>039-047>053-020100-
SOUTHEAST NORTH DAKOTA

CITY           SKY/WX    TMP DP  RH WIND       PRES   REMARKS
FARGO          SUNNY     67  27  22 N7        30.13F
6HR MIN TEMP:  60; 6HR MAX TEMP:  68;

JAMESTOWN      SUNNY     63  26  24 NW6       30.16S
$$




USA.gov is the U.S. government's official web portal to all federal, state and local government web resources and services.